Regional Weather Roundup
Issued by NWS Kansas City/Pleasant Hill, MO

Home | Current Version | Previous Version | Text Only | Print | Product List | Glossary On
Versions: 1 2 3 4 5 6 7 8 9 10 11 12 13 14 15 16 17 18 19 20 21 22 23 24 25 26 27 28 29 30 31 32 33 34 35 36 37 38 39 40 41 42 43 44 45 46 47 48 49 50
000
ASUS43 KEAX 252110
RWREAX

WEATHER ROUNDUP FOR EASTERN KANSAS AND NORTHWEST MISSOURI
NATIONAL WEATHER SERVICE KANSAS CITY/PLEASANT HILL MO
400 PM CDT THU MAY 25 2017

KSZ040-057-103>105-MOZ028-029-037-043-252200-
...KANSAS CITY METROPOLITAN AREA...

CITY           SKY/WX    TMP DP  RH WIND       PRES   REMARKS
K.C. INTL      MOSUNNY   75  55  49 SE16      29.61F
K.C. DOWNTOWN  SUNNY     77  53  43 SE14G20   29.61F
LEES SUMMIT    SUNNY     75  54  47 SE14G21   29.63F
OLATHE - IXD   SUNNY     76  52  43 SE18G24   29.61F
OLATHE - OJC   SUNNY     74  54  49 SE16G25   29.62F
LAWRENCE       SUNNY     78  54  43 SE17G26   29.59F

$$

MOZ001>008-011>017-020>025-030>033-038>040-044>046-053-054-252200-
...NORTHERN AND CENTRAL MISSOURI...

CITY           SKY/WX    TMP DP  RH WIND       PRES   REMARKS
ST. JOSEPH     SUNNY     76  54  46 SE16G24   29.59F
MOSBY          CLEAR     73  50  43 SE8       29.63F
WARRENSBURG    SUNNY     73  54  49 SE8       29.66F
WHITEMAN AFB   MOSUNNY   75  52  44 S12       29.65F
CLINTON        SUNNY     75  54  46 SE9       29.67F
SEDALIA        SUNNY     76  55  48 S9        29.69F
WARSAW         NOT AVBL
CHILLICOTHE      N/A     73  52  47 VRB7      29.67F
KIRKSVILLE     SUNNY     72  52  49 S6        29.68F

$$

MOZ041-047>049-056>058-063>065-088>090-097-252200-
...EASTERN AND SOUTHERN MISSOURI...

CITY           SKY/WX    TMP DP  RH WIND       PRES   REMARKS
ST. LOUIS INTL MOSUNNY   77  52  41 W13       29.70F
SPIRIT OF STL  MOSUNNY   75  52  44 W7        29.69F
COLUMBIA       SUNNY     73  51  46 VRB3      29.70F
JEFFERSON CITY SUNNY     76  49  38 S6        29.69F
ROLLA          SUNNY     72  51  47 VRB5      29.71
OSAGE BEACH    SUNNY     75  52  44 SE5       29.70F
SPRINGFIELD    SUNNY     76  54  46 SE13      29.68F
BRANSON        MOSUNNY   77  55  47 S12       29.72F
JOPLIN         MOSUNNY   78  57  48 S15       29.63F
WEST PLAINS    SUNNY     73  51  46 VRB6      29.76S

$$

IAZ060-094-KSZ022-034>040-054-083-096-NEZ052-066-093-252200-
...KANSAS...SOUTHEAST NEBRASKA AND IOWA...

CITY           SKY/WX    TMP DP  RH WIND       PRES   REMARKS
TOPEKA         SUNNY     76  54  46 SE18      29.56F
MANHATTAN      SUNNY     79  56  45 S16G23    29.53F
EMPORIA        SUNNY     77  55  46 SE20G28   29.55F
CHANUTE        CLOUDY    79  57  46 SE20      29.59F
WICHITA        MOSUNNY   81  58  45 S17G24    29.51F
OMAHA          MOSUNNY   75  50  41 S16       29.55F
LINCOLN        SUNNY     76  52  43 S18G25    29.52F
FALLS CITY     SUNNY     75  53  46 S22G31    29.55F
LAMONI         SUNNY     72  51  47 S10       29.64F
DES MOINES     MOSUNNY   73  49  42 SE9       29.63F

$$




USA.gov is the U.S. government's official web portal to all federal, state and local government web resources and services.